When you browse on this site, cookies collect data to enhance your experience and personalize the content and advertising you see.
Visit our Privacy Policy to learn more. By continuing to use the site, you agree to this use of cookies and data.
  • In Deutschland
  • Länderverzeichnis
  • Für 7 Tage
  • Wassertemperatur
  • Wetterkarte
  • Widgets
  • user-avatar
    Anmelden

    Stündliche Wetter Barisal

    Heute, 13 November, Mittwoch

    Zeit Temperatur Niederschläge Wind Luftdruck Luftfeuchtigkeit
    00:00 +24°C° 0 mm 2 m/S 759 mmHg 80%
    01:00 +23°C° 0 mm 2 m/S 759 mmHg 79%
    02:00 +23°C° 0 mm 2 m/S 758 mmHg 79%
    03:00 +23°C° 0 mm 2 m/S 758 mmHg 78%
    04:00 +23°C° 0 mm 2 m/S 758 mmHg 79%
    05:00 +21°C° 0 mm 2 m/S 759 mmHg 79%
    06:00 +21°C° 0 mm 2 m/S 759 mmHg 79%
    07:00 +24°C° 0 mm 2 m/S 759 mmHg 77%
    08:00 +25°C° 0 mm 2 m/S 760 mmHg 76%
    09:00 +27°C° 0 mm 2 m/S 761 mmHg 74%
    10:00 +28°C° 0 mm 2 m/S 760 mmHg 70%
    11:00 +29°C° 0 mm 2 m/S 760 mmHg 65%
    12:00 +30°C° 0 mm 2 m/S 759 mmHg 61%
    13:00 +30°C° 0 mm 3 m/S 759 mmHg 61%
    14:00 +30°C° 0 mm 3 m/S 758 mmHg 61%
    15:00 +30°C° 0 mm 3 m/S 758 mmHg 61%
    16:00 +29°C° 0 mm 2 m/S 758 mmHg 65%
    17:00 +27°C° 0 mm 2 m/S 758 mmHg 69%
    18:00 +26°C° 0 mm 2 m/S 758 mmHg 74%
    19:00 +25°C° 0 mm 2 m/S 759 mmHg 75%
    20:00 +24°C° 0 mm 2 m/S 759 mmHg 77%
    21:00 +24°C° 0 mm 2 m/S 760 mmHg 79%
    22:00 +24°C° 0 mm 2 m/S 760 mmHg 79%
    23:00 +23°C° 0 mm 2 m/S 760 mmHg 80%

    Morgen, 14 November, Donnerstag

    Zeit Temperatur Niederschläge Wind Luftdruck Luftfeuchtigkeit
    00:00 +23°C° 0 mm 2 m/S 760 mmHg 80%
    01:00 +23°C° 0 mm 2 m/S 759 mmHg 81%
    02:00 +21°C° 0 mm 2 m/S 759 mmHg 83%
    03:00 +21°C° 0 mm 2 m/S 759 mmHg 84%
    04:00 +21°C° 0 mm 2 m/S 759 mmHg 86%
    05:00 +21°C° 0 mm 2 m/S 759 mmHg 88%
    06:00 +21°C° 0 mm 2 m/S 759 mmHg 90%
    07:00 +24°C° 0 mm 2 m/S 760 mmHg 85%
    08:00 +25°C° 0 mm 2 m/S 760 mmHg 81%
    09:00 +27°C° 0 mm 2 m/S 761 mmHg 76%
    10:00 +28°C° 0 mm 2 m/S 760 mmHg 71%
    11:00 +30°C° 0 mm 2 m/S 760 mmHg 66%
    12:00 +31°C° 0 mm 2 m/S 759 mmHg 62%
    13:00 +31°C° 0 mm 2 m/S 758 mmHg 61%
    14:00 +31°C° 0 mm 2 m/S 758 mmHg 61%
    15:00 +31°C° 0 mm 2 m/S 757 mmHg 61%
    16:00 +29°C° 0 mm 2 m/S 758 mmHg 65%
    17:00 +28°C° 0 mm 2 m/S 758 mmHg 70%
    18:00 +26°C° 0 mm 1 m/S 758 mmHg 75%
    19:00 +26°C° 0 mm 2 m/S 758 mmHg 76%
    20:00 +25°C° 0 mm 2 m/S 759 mmHg 77%
    21:00 +24°C° 0 mm 2 m/S 759 mmHg 79%
    22:00 +24°C° 0 mm 2 m/S 759 mmHg 79%
    23:00 +23°C° 0 mm 2 m/S 759 mmHg 80%

    übermorgen, 15 November, Freitag

    Zeit Temperatur Niederschläge Wind Luftdruck Luftfeuchtigkeit
    00:00 +23°C° 0 mm 2 m/S 759 mmHg 81%
    01:00 +23°C° 0 mm 2 m/S 758 mmHg 81%
    02:00 +21°C° 0 mm 2 m/S 758 mmHg 81%
    03:00 +21°C° 0 mm 2 m/S 757 mmHg 81%
    04:00 +21°C° 0 mm 2 m/S 758 mmHg 81%
    05:00 +21°C° 0 mm 2 m/S 758 mmHg 81%
    06:00 +21°C° 0 mm 2 m/S 758 mmHg 82%
    07:00 +23°C° 0 mm 2 m/S 759 mmHg 79%
    08:00 +25°C° 0 mm 2 m/S 759 mmHg 76%
    09:00 +27°C° 0 mm 2 m/S 759 mmHg 73%
    10:00 +28°C° 0 mm 2 m/S 759 mmHg 68%
    11:00 +29°C° 0 mm 2 m/S 759 mmHg 63%
    12:00 +31°C° 0 mm 1 m/S 758 mmHg 58%
    13:00 +31°C° 0 mm 1 m/S 758 mmHg 57%
    14:00 +31°C° 0 mm 1 m/S 757 mmHg 56%
    15:00 +32°C° 0 mm 1 m/S 757 mmHg 55%
    16:00 +30°C° 0 mm 1 m/S 757 mmHg 60%
    17:00 +28°C° 0 mm 1 m/S 757 mmHg 66%
    18:00 +26°C° 0 mm 1 m/S 757 mmHg 71%
    19:00 +26°C° 0 mm 2 m/S 757 mmHg 73%
    20:00 +25°C° 0 mm 2 m/S 758 mmHg 74%
    21:00 +24°C° 0 mm 2 m/S 758 mmHg 76%
    22:00 +24°C° 0 mm 2 m/S 758 mmHg 76%
    23:00 +24°C° 0 mm 2 m/S 758 mmHg 75%

    16 November, Samstag

    Zeit Temperatur Niederschläge Wind Luftdruck Luftfeuchtigkeit
    00:00 +23°C° 0 mm 1 m/S 758 mmHg 75%
    01:00 +23°C° 0 mm 2 m/S 758 mmHg 76%
    02:00 +23°C° 0 mm 2 m/S 757 mmHg 77%
    03:00 +21°C° 0 mm 2 m/S 757 mmHg 78%
    04:00 +21°C° 0 mm 2 m/S 757 mmHg 80%
    05:00 +21°C° 0 mm 2 m/S 758 mmHg 81%
    06:00 +21°C° 0 mm 2 m/S 758 mmHg 82%
    07:00 +23°C° 0 mm 2 m/S 758 mmHg 78%
    08:00 +25°C° 0 mm 2 m/S 759 mmHg 74%
    09:00 +27°C° 0 mm 2 m/S 759 mmHg 70%
    10:00 +28°C° 0 mm 2 m/S 759 mmHg 65%
    11:00 +29°C° 0 mm 2 m/S 758 mmHg 60%
    12:00 +30°C° 0 mm 2 m/S 758 mmHg 56%
    13:00 +30°C° 0 mm 2 m/S 758 mmHg 55%
    14:00 +31°C° 0 mm 2 m/S 757 mmHg 55%
    15:00 +31°C° 0 mm 2 m/S 757 mmHg 54%
    16:00 +29°C° 0 mm 2 m/S 757 mmHg 60%
    17:00 +28°C° 0 mm 1 m/S 757 mmHg 65%
    18:00 +26°C° 0 mm 1 m/S 757 mmHg 70%
    19:00 +25°C° 0 mm 1 m/S 758 mmHg 71%
    20:00 +25°C° 0 mm 1 m/S 758 mmHg 73%
    21:00 +24°C° 0 mm 2 m/S 758 mmHg 74%
    22:00 +24°C° 0 mm 2 m/S 758 mmHg 75%
    23:00 +24°C° 0 mm 2 m/S 758 mmHg 75%

    17 November, Sonntag

    Zeit Temperatur Niederschläge Wind Luftdruck Luftfeuchtigkeit
    00:00 +23°C° 0 mm 1 m/S 758 mmHg 76%
    01:00 +23°C° 0 mm 1 m/S 758 mmHg 77%
    02:00 +23°C° 0 mm 2 m/S 757 mmHg 78%
    03:00 +21°C° 0 mm 2 m/S 757 mmHg 79%
    04:00 +22°C° 0 mm 1 m/S 758 mmHg 80%
    05:00 +22°C° 0 mm 1 m/S 758 mmHg 80%
    06:00 +22°C° 0 mm 1 m/S 758 mmHg 81%
    07:00 +24°C° 0 mm 1 m/S 758 mmHg 77%
    08:00 +25°C° 0 mm 1 m/S 759 mmHg 73%
    09:00 +27°C° 0 mm 1 m/S 760 mmHg 69%
    10:00 +28°C° 0 mm 2 m/S 759 mmHg 64%
    11:00 +29°C° 0 mm 2 m/S 759 mmHg 59%
    12:00 +30°C° 0 mm 2 m/S 758 mmHg 54%
    13:00 +30°C° 0 mm 2 m/S 758 mmHg 53%
    14:00 +31°C° 0 mm 2 m/S 757 mmHg 52%
    15:00 +31°C° 0 mm 2 m/S 757 mmHg 51%
    16:00 +29°C° 0 mm 2 m/S 757 mmHg 57%
    17:00 +27°C° 0 mm 2 m/S 757 mmHg 62%
    18:00 +25°C° 0 mm 1 m/S 757 mmHg 68%
    19:00 +25°C° 0 mm 1 m/S 758 mmHg 68%
    20:00 +24°C° 0 mm 2 m/S 758 mmHg 69%
    21:00 +24°C° 0 mm 2 m/S 758 mmHg 69%
    22:00 +23°C° 0 mm 2 m/S 758 mmHg 70%
    23:00 +23°C° 0 mm 2 m/S 758 mmHg 70%

    18 November, Montag

    Zeit Temperatur Niederschläge Wind Luftdruck Luftfeuchtigkeit
    00:00 +23°C° 0 mm 2 m/S 758 mmHg 71%
    01:00 +21°C° 0 mm 2 m/S 758 mmHg 72%
    02:00 +21°C° 0 mm 2 m/S 757 mmHg 73%
    03:00 +21°C° 0 mm 2 m/S 757 mmHg 74%
    04:00 +21°C° 0 mm 1 m/S 757 mmHg 75%
    05:00 +21°C° 0 mm 1 m/S 758 mmHg 76%
    06:00 +21°C° 0 mm 1 m/S 758 mmHg 77%
    07:00 +23°C° 0 mm 1 m/S 759 mmHg 73%
    08:00 +24°C° 0 mm 1 m/S 759 mmHg 69%
    09:00 +26°C° 0 mm 1 m/S 760 mmHg 65%
    10:00 +27°C° 0 mm 2 m/S 759 mmHg 61%
    11:00 +29°C° 0 mm 2 m/S 759 mmHg 57%
    12:00 +30°C° 0 mm 3 m/S 758 mmHg 52%
    13:00 +30°C° 0 mm 3 m/S 758 mmHg 53%
    14:00 +30°C° 0 mm 3 m/S 758 mmHg 53%
    15:00 +30°C° 0 mm 3 m/S 757 mmHg 53%
    16:00 +28°C° 0 mm 2 m/S 757 mmHg 58%
    17:00 +27°C° 0 mm 2 m/S 757 mmHg 63%
    18:00 +25°C° 0 mm 1 m/S 758 mmHg 67%
    19:00 +24°C° 0 mm 2 m/S 758 mmHg 69%
    20:00 +24°C° 0 mm 2 m/S 758 mmHg 70%
    21:00 +23°C° 0 mm 2 m/S 758 mmHg 72%
    22:00 +23°C° 0 mm 2 m/S 758 mmHg 73%
    23:00 +21°C° 0 mm 2 m/S 758 mmHg 73%
    Mehr zeigen